Wind_Speed
36 38 40 40 38 37 36 35 33 32 31 29 28 27 26 25 24 23 21 20 19 17 15 13 12 10 8 8 8 9 10 12 12 12 13 14 14 14 15 15 16 17 18 19 19 20 21 21 21 20 19 20 19 19 18 18 18 19 18 18 19 17 16 16 12 13 21 24 22 24 26 27 28 26 26 27 26 24 25 25 26 29 31 33 34
35 37 37 38 39 39 37 36 34 32 31 29 28 27 26 25 25 24 23 21 20 18 16 14 12 9 7 7 7 9 10 12 12 12 12 12 13 13 14 15 16 17 18 18 19 19 20 21 21 20 20 20 21 20 20 19 18 19 20 18 19 18 15 15 15 13 18 24 22 22 23 22 23 25 26 27 28 27 26 26 26 28 29 31 33
30 31 30 31 34 36 36 35 34 32 31 29 27 26 25 24 24 24 23 21 19 17 15 13 10 7 6 6 7 9 11 11 10 10 10 11 13 14 14 15 15 16 17 18 18 18 19 20 21 20 20 21 22 21 20 20 19 19 20 19 19 21 18 15 16 15 17 23 23 21 21 21 21 22 24 27 29 28 27 26 26 28 28 27 28
29 31 31 30 28 29 31 33 33 32 31 28 26 25 23 23 23 23 22 20 18 16 14 11 8 6 6 7 8 10 10 9 8 9 10 11 13 14 15 16 16 16 16 17 17 17 17 18 19 19 19 20 21 21 20 20 20 19 20 20 20 22 21 17 16 16 17 21 23 20 19 21 22 21 23 25 27 27 27 27 27 28 28 27 26
29 31 33 32 29 26 26 27 29 31 30 27 25 23 22 22 22 21 19 17 16 15 13 10 8 7 7 7 8 8 7 7 7 9 11 13 14 16 17 18 18 17 17 16 16 16 17 18 18 18 18 19 20 21 20 20 21 21 21 22 21 21 22 19 17 17 17 19 22 22 19 19 21 21 21 23 25 26 26 27 27 27 27 27 26
29 29 30 31 30 28 26 25 26 28 28 26 24 22 21 21 21 19 16 15 14 13 11 9 8 7 7 7 6 5 5 7 8 10 12 15 17 19 19 19 19 19 18 17 16 17 17 17 18 17 17 18 20 21 21 21 21 22 22 22 22 21 21 21 19 18 19 19 21 23 21 19 19 20 20 20 23 24 24 26 27 26 26 26 26
30 29 30 31 31 32 32 30 29 29 28 26 24 22 21 21 19 17 15 14 13 11 10 9 8 7 7 6 4 5 6 7 9 11 14 17 18 19 20 20 21 20 20 19 18 18 18 18 18 18 18 18 20 20 21 21 21 21 21 21 22 21 21 22 21 20 19 19 20 23 22 20 18 19 19 18 19 21 22 23 24 25 25 25 26
27 29 28 29 30 32 34 34 34 33 31 28 25 23 22 21 19 17 15 14 12 11 10 9 9 7 5 4 4 5 6 7 9 12 15 16 18 19 20 21 22 22 22 21 20 19 19 19 20 20 21 21 21 21 22 22 23 23 23 22 23 23 23 23 22 21 19 19 20 21 23 22 20 20 20 17 15 18 21 22 24 26 26 25 25
26 28 28 27 27 28 30 34 35 35 33 30 27 25 23 21 19 17 15 13 12 11 10 10 8 6 3 2 3 3 4 6 9 12 14 16 17 19 21 22 23 24 24 24 23 22 21 21 22 22 22 22 23 24 25 25 26 27 27 26 25 25 25 24 23 22 20 19 19 21 21 21 20 19 19 16 13 16 20 19 22 25 24 22 23
27 28 31 32 33 32 33 35 36 36 34 32 30 27 25 22 20 17 15 14 13 12 11 10 7 4 2 2 1 1 4 7 10 12 13 15 17 19 21 22 23 24 25 26 25 25 24 24 24 24 24 24 24 25 25 26 27 27 28 28 27 26 26 25 23 22 21 19 20 20 19 20 21 19 19 19 17 18 19 18 18 20 18 15 18
27 30 32 33 33 34 34 34 36 35 34 33 31 29 27 25 21 18 16 15 14 13 12 10 7 4 4 3 1 3 6 9 12 14 15 16 18 20 21 23 23 24 25 27 27 27 27 27 26 26 26 26 26 26 26 27 28 28 29 30 30 29 28 27 25 23 22 20 21 20 18 20 22 21 20 21 21 21 21 19 17 16 15 12 11
26 29 29 28 28 29 27 28 31 34 35 35 33 31 29 27 22 20 18 17 16 15 13 10 7 5 4 2 2 5 9 12 13 15 17 18 19 20 22 23 24 25 26 27 28 28 29 29 28 28 27 27 27 27 27 28 28 28 29 30 31 31 31 31 30 28 25 23 23 23 22 21 23 23 21 20 21 22 22 20 17 17 18 16 14
24 26 24 25 28 30 29 29 30 33 35 34 33 32 31 27 23 21 20 18 17 16 13 10 8 6 4 1 3 6 9 12 15 17 18 19 18 19 21 23 25 26 27 27 28 28 29 29 29 29 28 28 28 28 28 28 28 28 29 29 30 31 31 32 33 32 31 29 27 27 27 24 25 26 23 20 21 22 21 20 19 18 19 20 21
23 24 23 25 29 31 32 34 35 36 36 34 33 33 30 25 22 20 20 19 18 16 13 10 8 5 3 1 4 6 8 12 17 19 20 21 19 19 21 23 25 27 28 28 29 29 29 29 30 30 29 29 28 28 28 28 27 27 28 29 30 30 30 30 31 31 32 33 32 33 33 30 30 30 27 24 23 24 23 23 22 22 22 23 24
22 24 25 26 26 25 26 27 28 31 34 33 33 32 27 23 21 21 20 19 17 15 12 9 7 5 2 2 4 6 9 14 17 19 21 22 21 21 22 24 26 27 28 28 29 29 29 29 30 31 31 30 29 28 27 26 27 28 30 30 31 31 31 31 30 30 31 32 32 33 34 33 33 32 30 27 23 21 22 22 23 25 25 23 22
23 23 24 25 25 24 24 21 20 23 30 31 30 28 24 21 21 21 20 18 16 13 11 9 6 4 3 4 6 8 10 14 16 19 22 23 22 22 23 25 27 28 28 29 29 29 28 28 29 30 31 31 29 28 27 27 29 30 31 32 32 33 34 33 31 32 33 35 36 35 34 34 33 31 28 26 23 22 23 24 25 25 22 20 19
24 24 25 26 25 24 24 24 22 24 29 30 28 25 21 19 20 21 20 18 15 13 10 8 7 5 5 6 7 9 10 13 16 19 22 23 23 23 24 26 27 28 30 29 29 28 27 27 28 29 30 30 29 29 28 28 29 31 31 32 32 33 34 33 31 32 33 35 37 38 38 38 38 37 36 34 32 30 28 27 24 22 20 16 13
25 25 26 27 26 25 25 28 29 30 29 27 23 20 17 17 19 20 19 16 13 11 10 8 8 7 7 8 9 9 11 13 16 19 22 24 24 24 25 27 28 30 31 30 29 29 28 27 26 27 30 30 29 29 28 28 30 31 31 32 33 33 33 32 32 33 32 33 35 36 37 38 38 39 40 40 38 34 31 29 25 22 21 18 15
26 27 27 28 28 28 29 32 34 35 31 23 18 16 16 18 18 17 15 12 11 10 10 9 9 9 9 10 11 11 12 14 16 19 22 24 25 25 26 27 29 31 31 31 30 29 29 29 28 28 30 31 31 32 32 32 33 33 31 31 32 32 30 30 31 33 32 32 33 33 35 35 35 36 37 37 37 36 35 34 30 25 24 23 21
27 29 27 28 29 29 30 32 33 32 27 19 17 19 20 19 17 15 13 11 10 10 11 11 11 10 10 11 13 13 14 16 17 20 22 24 26 27 27 27 30 31 31 30 30 30 31 31 30 29 30 31 32 33 34 34 35 36 34 33 32 31 30 30 31 32 32 33 33 33 33 33 32 33 34 33 33 31 31 33 33 30 26 26 26
26 26 24 27 30 32 34 35 33 31 27 24 23 22 19 16 13 12 11 11 11 11 11 12 12 12 12 13 15 16 17 18 19 21 24 25 27 27 27 28 30 31 31 30 30 32 33 32 31 30 30 31 32 33 34 34 35 37 37 37 36 36 35 35 35 34 35 35 35 35 35 34 33 33 33 33 32 29 27 29 31 32 29 28 29
25 25 24 26 29 32 35 35 32 30 28 26 24 20 15 13 11 11 10 11 11 12 13 13 13 13 14 15 17 19 20 21 22 23 25 27 29 29 29 30 30 31 32 32 31 33 34 34 34 33 32 33 33 33 34 35 36 38 40 40 41 40 39 38 38 36 35 35 33 33 34 34 33 31 30 31 31 29 27 27 29 31 30 30 31
25 26 26 27 29 31 34 34 31 29 27 24 21 18 15 14 13 12 11 12 13 13 13 13 13 14 15 16 19 22 23 24 24 25 27 29 31 32 31 31 30 30 31 33 34 35 36 36 35 35 34 34 35 35 36 37 38 41 42 42 42 42 41 40 38 36 35 34 33 33 32 33 33 31 29 28 27 27 26 27 28 29 29 29 31
26 28 29 31 32 32 33 31 29 28 25 21 19 19 18 16 15 13 13 13 13 12 12 12 13 14 16 19 21 23 25 26 26 27 29 31 32 33 32 31 30 30 31 34 35 36 36 36 37 37 38 39 40 41 42 42 42 44 44 43 42 41 40 38 37 35 34 33 33 32 32 32 33 32 31 30 29 30 30 30 29 28 28 28 29
27 27 28 31 33 33 32 31 30 28 25 22 20 21 21 18 14 12 10 9 9 9 10 11 12 14 17 21 23 24 25 27 27 28 30 32 33 32 31 31 30 30 31 34 35 36 37 38 40 41 41 42 42 42 42 43 43 44 44 44 43 41 39 37 35 33 32 31 31 31 33 32 31 31 30 30 30 31 31 30 29 28 27 28 28
30 32 33 31 30 31 33 33 32 28 25 23 21 18 17 15 11 7 6 5 6 7 8 10 12 16 19 22 24 26 26 27 29 30 31 32 32 31 32 32 31 31 31 33 35 36 37 38 38 39 40 40 40 40 40 41 41 41 41 41 40 39 37 36 35 33 32 31 30 30 31 31 30 29 29 28 28 29 29 28 28 27 27 26 26
32 35 38 35 32 31 32 32 29 26 24 23 20 15 11 8 6 4 4 4 4 5 7 10 14 17 20 23 25 26 27 28 30 31 31 31 32 33 34 33 32 31 32 33 33 34 35 36 36 37 38 39 39 38 39 39 39 39 39 38 38 38 38 37 37 37 36 34 32 31 31 30 29 28 28 27 28 29 29 28 26 26 25 24 23
32 32 34 36 35 33 31 29 27 24 21 18 15 12 9 7 6 5 3 2 2 4 7 11 14 17 20 23 24 25 26 28 30 31 31 33 34 35 34 33 32 31 32 33 34 35 35 34 34 34 34 34 33 33 32 33 34 35 36 36 36 36 36 36 36 37 37 35 33 32 30 29 28 27 27 27 28 29 29 27 26 25 25 23 22
34 32 31 32 32 32 30 28 26 23 19 15 13 11 8 8 7 6 3 2 1 4 7 10 14 17 20 23 23 23 26 28 30 30 32 35 35 34 33 32 32 33 33 33 34 34 31 29 28 28 27 27 27 27 26 27 28 30 31 33 33 33 33 32 33 34 34 33 32 30 29 27 26 25 25 26 27 28 28 27 26 25 25 25 23
33 31 29 28 28 28 27 25 24 21 19 17 14 11 10 9 7 5 4 2 2 5 8 11 14 17 21 23 22 23 26 29 30 32 34 35 33 30 30 30 31 33 33 31 31 29 26 24 24 23 23 23 22 22 23 23 24 25 27 28 29 30 30 31 32 33 33 31 30 29 28 26 24 23 24 25 25 26 27 26 26 26 25 24 22
28 27 28 28 28 27 26 25 24 22 18 16 13 11 11 10 7 5 4 2 3 5 8 11 13 15 18 21 22 24 26 28 30 33 34 33 29 28 29 30 30 30 29 28 27 25 22 21 21 21 22 21 21 21 22 22 22 23 24 25 25 27 28 29 30 30 30 29 29 28 28 27 24 23 24 24 24 24 25 25 26 26 26 25 23
25 26 29 29 28 28 27 27 25 21 18 16 13 11 11 10 7 4 3 2 3 6 8 9 9 11 14 17 20 22 23 25 28 31 30 28 27 27 28 29 29 28 26 24 24 22 20 20 20 21 21 21 21 22 22 22 22 22 22 22 23 24 26 28 29 28 27 27 27 27 27 27 26 25 26 26 24 23 23 25 26 26 24 24 23
25 27 30 30 29 30 29 27 24 22 20 16 13 11 10 9 7 5 3 1 3 6 7 7 8 11 14 14 15 18 21 25 27 28 27 26 26 26 27 27 27 25 23 21 20 20 20 21 21 21 22 22 22 23 23 22 22 23 22 21 21 23 25 27 27 27 28 28 28 27 27 27 27 27 27 27 25 23 23 24 24 23 22 21 21
26 29 30 30 30 29 27 25 24 22 19 15 13 12 10 8 6 4 1 2 4 7 8 7 9 12 14 13 15 18 22 26 27 26 25 25 25 25 26 26 26 25 24 21 20 20 20 21 21 22 23 23 23 23 23 23 23 23 23 22 21 21 24 24 24 25 27 28 27 28 28 27 27 26 25 25 24 23 23 24 23 22 22 21 21
30 32 31 30 29 26 25 24 24 21 18 14 13 12 10 7 5 3 3 4 5 7 8 8 10 12 14 14 16 20 24 27 27 25 25 24 24 25 25 24 24 25 24 23 22 22 22 22 23 24 24 24 24 24 23 24 24 23 23 23 23 21 21 21 22 25 26 27 27 28 28 27 27 27 25 24 23 22 21 22 23 23 23 24 24
32 32 30 28 26 24 24 24 23 20 17 14 12 11 8 5 4 3 2 3 3 5 7 8 9 11 13 14 16 20 25 28 27 25 25 25 24 24 23 22 23 23 23 23 23 23 24 24 24 24 25 24 24 24 24 23 24 23 23 23 22 21 20 19 20 23 25 26 27 27 26 26 27 28 26 24 23 22 21 22 23 24 24 25 25
30 29 27 24 23 23 24 23 21 18 15 14 12 8 6 5 4 2 2 3 3 5 7 8 9 11 13 15 16 20 25 29 28 28 27 27 25 24 22 22 23 23 23 24 24 24 25 25 25 25 25 25 24 24 24 23 23 23 22 21 19 19 19 18 18 19 22 25 26 26 26 26 26 27 25 23 22 22 22 23 23 23 24 26 26
28 26 24 22 22 22 22 21 19 16 14 12 10 7 5 4 3 3 3 4 5 6 7 7 9 11 13 14 16 20 25 29 30 30 29 27 26 24 23 23 23 23 23 24 25 25 25 26 26 26 26 25 25 24 24 23 22 21 19 18 16 15 14 14 14 15 18 21 24 25 26 26 26 27 26 23 22 21 21 23 23 23 24 25 26
25 22 20 20 19 19 20 20 17 14 12 11 9 6 5 3 4 4 3 6 6 5 6 7 8 10 11 13 16 19 24 27 28 27 26 26 26 25 24 24 24 25 25 25 26 26 26 26 27 27 26 26 25 24 23 22 21 19 17 15 13 11 9 9 9 9 11 15 18 22 24 25 25 25 25 24 23 22 23 23 24 25 24 22 21
21 20 17 16 15 15 17 18 15 12 10 8 5 3 2 2 2 3 6 7 6 5 6 7 8 9 10 12 15 18 22 24 25 24 24 25 26 26 26 25 25 26 27 27 27 27 27 27 27 27 26 26 25 25 23 21 20 18 15 13 11 9 6 5 4 4 6 10 13 17 20 22 23 22 22 22 23 24 25 25 26 27 28 27 26
20 18 15 14 14 14 16 16 12 9 7 5 3 3 3 3 3 5 7 8 6 6 6 7 8 8 10 11 13 16 19 22 23 24 24 24 25 26 26 26 26 27 27 28 28 28 28 28 27 27 26 26 25 25 23 21 19 17 15 13 11 8 6 4 1 3 7 10 13 16 18 21 22 22 22 22 23 25 27 27 28 28 29 30 31
18 16 15 15 15 15 14 13 10 8 7 6 6 6 5 4 5 7 8 7 6 5 6 7 7 8 9 11 12 15 17 20 23 24 24 24 24 25 26 26 27 27 27 28 28 28 28 28 28 27 27 26 26 25 24 22 20 18 16 15 13 11 9 7 5 5 9 12 14 17 19 21 23 24 24 25 26 26 28 29 30 30 31 32 33
16 15 15 16 16 15 15 13 11 10 10 10 10 8 6 5 7 8 7 6 6 5 6 6 5 6 7 9 11 14 16 18 21 23 24 24 24 25 25 26 26 26 27 27 28 28 28 28 28 28 27 26 25 24 23 22 20 18 17 16 14 13 11 9 8 8 10 13 15 18 20 22 24 26 27 28 28 28 29 30 30 31 32 32 33
17 18 18 18 18 17 16 14 13 14 13 12 11 9 8 8 8 8 8 8 8 7 6 6 4 5 7 9 11 14 15 16 18 21 23 24 24 24 24 25 25 26 27 27 27 28 28 28 28 28 28 27 26 24 23 22 20 19 18 16 15 14 13 11 10 10 12 16 17 19 21 23 24 26 27 29 30 31 30 30 30 30 30 31 31
21 21 20 20 19 19 17 16 15 14 13 12 12 11 11 11 10 10 9 9 9 9 8 8 7 7 8 9 11 13 14 13 15 18 21 22 24 24 23 23 25 26 26 26 26 27 27 28 28 29 28 28 27 25 23 22 20 19 18 17 17 16 14 11 10 11 14 17 19 21 22 23 24 26 27 28 30 31 30 30 31 31 30 30 29
23 22 21 21 20 19 17 16 15 14 14 13 13 12 12 11 11 11 10 10 10 10 10 10 9 10 10 11 12 13 13 12 13 15 17 20 22 22 21 22 24 25 24 24 25 26 26 27 28 28 28 28 27 26 24 23 21 19 18 17 16 15 14 12 12 13 16 18 21 22 23 24 25 26 27 28 30 30 30 30 31 31 31 30 30
23 22 22 21 20 19 18 16 15 15 15 14 13 13 12 11 10 10 10 10 9 9 10 10 11 11 12 12 13 14 14 12 12 12 14 17 19 20 20 22 24 25 24 23 23 24 25 26 27 27 27 28 27 26 25 23 22 21 19 18 16 15 15 15 15 16 18 20 22 24 25 25 26 27 28 29 30 31 31 30 30 31 31 31 31
22 22 21 20 20 19 17 16 16 15 15 14 13 12 11 9 9 9 9 9 9 9 9 10 10 11 12 13 14 14 14 14 12 12 12 14 16 17 18 20 24 25 25 23 22 23 24 25 26 26 27 27 27 26 25 24 23 22 21 19 18 16 16 18 19 20 21 22 23 25 26 27 27 28 29 29 30 31 32 32 31 32 32 32 31
22 22 21 20 20 19 17 17 16 15 14 13 12 11 10 9 9 9 9 9 9 9 10 10 11 11 12 13 14 15 16 16 16 14 12 12 13 15 15 17 21 24 24 23 22 22 22 23 24 25 26 26 26 27 26 25 24 23 22 20 19 18 19 21 22 23 24 25 26 27 27 28 29 29 30 30 31 32 33 32 32 32 32 32 31
22 21 20 20 19 18 17 17 16 15 14 13 11 10 10 9 9 9 9 10 10 11 11 10 11 11 12 13 14 14 15 17 17 16 14 12 11 12 12 14 17 21 23 22 22 22 22 22 23 24 25 25 26 26 26 26 25 24 22 20 19 20 21 22 24 25 27 28 28 29 30 30 31 30 30 31 32 32 32 32 32 32 32 31 31
21 20 19 19 18 17 17 17 16 15 14 14 12 10 9 9 9 9 10 10 11 11 11 11 11 11 12 12 13 13 14 15 16 16 15 13 11 10 10 11 14 17 19 21 22 22 22 22 23 24 24 25 25 26 25 25 24 23 22 21 20 21 22 24 25 27 29 30 31 31 31 32 32 31 31 31 32 32 32 32 31 31 31 31 30
Wind_Direction
210 211 213 213 213 214 214 215 215 215 217 218 218 217 216 215 214 212 212 214 215 216 222 228 235 243 256 276 290 300 306 306 306 308 315 323 326 328 330 329 327 326 326 324 324 324 322 321 321 322 324 323 321 321 320 319 319 315 311 309 304 302 305 305 301 297 295 296 298 298 294 286 279 274 270 269 269 268 270 271 270 269 266 265 264
213 214 214 213 214 214 214 214 213 213 215 217 216 214 213 213 211 210 209 209 210 213 217 220 225 236 252 272 285 291 295 295 296 304 315 322 326 330 331 329 327 327 326 325 324 324 322 319 319 321 321 320 318 317 317 317 318 316 313 313 308 303 303 302 300 300 299 300 303 306 305 295 282 277 273 272 272 270 266 266 267 267 266 264 264
215 216 217 218 218 215 213 212 210 209 211 213 213 212 212 210 209 208 206 204 205 208 211 212 214 227 247 263 275 282 284 285 292 306 317 324 328 331 330 328 326 324 323 322 322 322 320 317 315 318 319 318 315 315 315 314 314 313 311 311 309 306 304 301 298 298 299 300 302 303 306 302 293 288 283 277 275 271 265 263 263 266 268 267 267
219 217 216 220 222 219 215 211 207 206 208 210 211 210 209 207 206 204 202 200 200 201 202 204 209 223 240 254 264 269 271 278 293 308 316 324 328 327 326 323 321 319 318 318 317 314 313 310 310 312 314 313 311 312 312 312 311 310 307 307 307 306 306 304 297 295 296 298 301 303 305 303 299 297 291 282 275 269 264 262 261 263 268 269 270
223 220 216 215 216 217 216 212 206 204 205 207 208 208 207 204 202 200 199 199 198 199 200 204 213 226 238 248 253 256 265 282 299 310 318 325 325 323 323 320 316 313 311 312 313 309 305 303 302 304 305 304 304 305 306 306 306 305 303 303 303 303 304 304 299 296 296 297 299 302 305 306 303 301 298 289 280 273 266 262 260 260 262 265 266
225 223 218 212 209 209 209 210 209 205 204 204 204 204 203 201 198 197 198 199 199 202 206 210 219 230 236 238 242 254 276 293 302 311 318 321 320 318 317 316 314 310 307 306 307 305 302 301 299 299 298 297 297 298 300 300 300 299 299 299 299 300 300 301 301 298 296 294 293 296 299 303 305 305 304 295 284 276 270 265 261 256 255 259 263
224 222 219 214 209 206 205 205 205 206 205 202 199 197 197 196 195 194 197 199 201 206 211 218 224 225 223 226 246 276 292 299 306 312 315 315 315 315 315 314 312 310 308 305 303 301 299 298 297 295 294 292 293 294 296 296 296 294 294 295 297 297 295 296 298 297 295 292 290 290 293 296 300 302 306 305 289 275 269 265 261 257 254 256 261
224 221 219 215 210 207 204 202 201 202 203 199 193 190 189 190 191 192 194 197 202 210 216 219 215 209 215 245 281 294 300 307 311 313 315 316 316 315 315 314 312 310 308 306 304 302 300 299 297 294 291 288 287 287 289 291 293 292 291 292 292 292 291 291 292 291 291 290 287 288 289 290 292 293 299 306 295 280 274 265 258 258 257 256 257
227 221 216 213 213 211 207 204 200 196 194 191 186 184 184 185 187 189 192 196 203 208 211 209 204 202 224 274 289 294 305 312 315 318 319 321 320 317 314 312 310 309 306 305 303 301 299 298 297 295 293 289 286 284 283 283 286 287 288 289 290 288 286 285 284 284 284 283 283 284 284 283 283 285 290 294 290 287 285 272 258 257 258 255 254
230 223 218 216 218 216 211 204 196 189 187 185 182 180 181 183 185 187 192 197 200 201 201 198 197 199 197 182 195 290 317 321 323 323 323 322 318 315 313 312 310 308 305 303 301 299 298 297 296 295 292 290 287 285 283 281 280 280 282 283 286 288 287 283 280 277 276 275 274 276 277 276 275 275 277 282 285 290 290 281 266 260 257 254 256
233 226 224 221 217 212 207 198 189 186 184 181 180 179 179 181 183 187 191 194 196 197 197 195 193 190 182 179 222 316 330 330 327 323 318 316 313 311 311 310 309 308 305 302 299 298 297 295 294 293 290 288 286 284 283 282 280 279 278 278 279 281 283 283 280 276 273 271 270 268 267 270 274 273 271 274 279 283 287 284 271 257 247 244 252
239 230 225 219 210 203 199 190 186 187 186 181 180 180 179 178 180 185 190 193 195 194 193 193 191 188 190 203 311 336 338 336 334 330 323 317 312 310 309 308 307 306 305 302 299 297 295 293 291 289 286 285 285 284 282 280 279 279 279 278 277 275 275 275 276 276 272 269 269 267 264 266 272 273 271 274 276 277 281 281 271 256 246 237 237
242 231 222 212 205 200 195 190 189 190 187 182 180 178 176 175 177 185 191 193 194 191 188 188 185 185 195 232 340 343 347 348 349 348 340 330 320 314 311 309 306 304 303 301 298 295 293 291 289 286 284 283 283 282 280 279 278 278 278 279 279 276 273 271 271 274 273 269 266 265 264 265 268 270 271 274 274 273 274 274 270 261 250 243 245
239 227 216 206 202 199 197 196 196 192 186 182 180 176 173 172 177 186 191 191 190 186 181 182 181 185 204 311 339 335 346 354 355 353 348 340 330 319 313 309 306 304 301 299 296 293 291 290 287 285 284 283 281 280 278 276 276 277 278 278 278 277 276 273 271 271 272 270 266 264 264 264 264 267 270 271 270 268 266 267 267 264 259 256 258
239 224 212 204 201 199 198 202 201 191 181 178 177 173 169 171 178 187 192 191 189 184 181 184 186 190 222 302 311 309 327 345 353 354 350 345 336 324 315 310 306 304 301 298 295 292 290 289 287 286 285 283 281 278 275 273 274 275 276 276 275 275 274 273 271 270 269 269 267 266 266 266 265 266 268 267 265 264 265 268 270 269 264 260 258
238 222 210 205 204 203 201 202 202 187 173 169 169 168 168 173 181 187 188 185 184 183 185 192 199 205 235 277 282 287 311 335 349 354 352 348 338 326 317 310 305 302 299 297 294 292 290 289 287 286 284 282 280 277 274 274 274 273 273 273 273 273 272 273 273 272 268 267 267 267 268 268 267 266 264 262 261 266 274 279 279 272 258 248 246
234 219 208 203 201 200 195 189 184 174 165 163 165 166 170 177 183 186 183 179 181 189 195 202 210 224 239 252 264 280 307 331 344 349 351 348 340 329 319 310 305 301 297 296 294 292 290 288 286 285 283 281 279 278 276 275 273 271 271 272 273 272 272 274 275 274 272 269 268 268 268 268 267 267 267 266 266 270 275 277 275 264 247 239 238
231 218 207 200 194 189 185 179 171 163 158 157 157 160 173 185 187 186 183 183 189 199 206 213 220 224 232 244 258 281 308 326 336 341 345 346 341 332 322 312 305 301 298 296 294 292 290 287 284 282 281 280 279 277 276 275 274 273 272 273 273 271 271 275 277 277 276 274 272 270 268 267 266 265 266 266 267 268 266 264 264 254 240 237 238
229 217 208 198 189 184 181 175 165 156 151 148 149 165 187 191 186 185 189 194 204 209 215 225 225 218 225 246 263 284 306 319 327 334 340 343 340 334 325 314 305 302 300 298 296 294 292 289 286 283 281 279 278 276 275 274 274 274 273 273 271 270 272 275 276 276 277 275 273 270 267 265 264 262 262 262 264 264 259 257 257 251 239 236 236
231 219 206 193 185 180 173 165 154 147 147 153 164 178 186 182 179 186 196 206 216 221 226 232 227 221 233 254 270 286 300 312 320 328 335 339 338 334 325 313 304 301 300 299 297 295 294 292 289 286 284 281 279 277 275 273 272 272 271 269 267 269 274 276 274 274 274 272 270 270 268 265 262 260 260 260 261 259 253 249 249 248 244 238 234
232 214 199 187 180 174 166 159 152 151 160 171 172 171 171 171 181 197 206 216 223 227 233 234 230 232 247 263 277 288 297 306 314 323 331 336 336 332 323 312 305 301 299 297 295 293 293 292 290 288 287 284 282 279 276 273 271 270 268 266 266 269 272 272 271 271 270 269 268 267 265 265 262 258 255 254 254 252 249 247 248 250 250 244 236
224 205 192 182 174 167 162 157 153 154 162 165 161 159 164 176 191 201 209 220 227 230 235 237 237 244 256 270 283 290 296 302 308 318 327 332 333 330 322 314 308 301 296 294 293 291 291 291 290 290 288 285 282 280 277 274 272 269 268 266 266 267 267 267 267 266 266 266 266 263 260 260 259 254 248 246 246 246 249 253 254 255 257 254 245
210 193 183 172 165 160 155 151 151 154 157 159 158 161 172 184 194 203 213 222 228 233 239 241 243 253 266 281 292 297 299 300 304 313 323 328 329 327 322 315 309 300 292 290 290 291 291 291 291 291 290 288 284 281 278 275 273 270 269 267 266 265 264 263 263 262 262 262 262 260 257 254 253 251 247 244 246 250 255 259 260 258 261 263 258
194 181 173 164 157 149 143 144 150 153 155 160 165 171 179 188 196 208 218 224 229 237 245 247 251 264 279 290 299 304 304 300 302 310 320 325 325 323 318 313 308 300 293 289 290 290 291 292 292 293 292 289 287 284 280 277 274 271 269 268 266 264 262 260 258 257 256 255 255 255 254 252 249 247 246 247 252 257 260 261 263 261 260 264 267
178 168 160 153 147 144 144 151 156 156 159 166 174 182 190 196 201 209 217 223 234 246 253 257 267 279 288 293 300 305 305 301 302 310 319 322 321 318 315 312 308 302 296 292 292 292 293 294 294 294 293 291 288 285 281 277 275 272 270 269 266 262 259 256 254 252 250 248 248 249 251 250 248 247 247 248 251 253 253 254 258 261 260 262 267
165 157 150 147 149 152 155 157 157 157 163 171 177 184 192 197 200 205 207 213 234 256 270 281 288 291 292 296 300 302 301 300 302 309 317 319 318 316 314 312 310 305 300 297 297 297 297 297 295 294 292 290 287 284 279 277 275 273 271 269 264 259 254 251 248 246 245 244 245 246 247 248 248 247 246 245 244 244 245 249 254 258 260 259 257
159 154 151 152 157 159 157 155 155 160 169 178 182 178 170 170 178 182 186 207 237 270 289 294 294 293 295 297 298 298 297 298 301 308 315 318 317 316 315 314 312 309 305 303 302 301 300 298 297 295 293 291 288 285 281 278 275 271 268 264 259 254 251 247 244 242 242 242 243 244 247 247 245 242 239 238 240 242 245 248 250 251 252 250 241
152 149 150 152 155 155 154 154 157 162 169 175 174 164 151 148 152 156 163 190 256 290 295 296 298 299 299 298 297 295 294 297 304 311 316 318 317 316 316 315 314 311 308 307 306 304 302 301 299 297 294 292 290 287 284 279 275 270 265 261 256 252 249 246 243 241 240 240 241 243 244 243 238 234 232 234 238 242 244 244 243 244 242 234 221
140 138 141 146 150 152 154 158 161 162 157 145 137 141 151 157 156 154 143 117 7 315 303 305 309 308 304 301 297 291 291 299 309 315 319 320 319 317 317 316 315 313 311 311 310 307 304 302 299 296 294 291 290 289 286 283 278 273 268 262 257 252 247 242 239 237 237 237 237 237 238 236 232 228 229 233 237 239 241 240 238 236 230 219 207
134 138 144 149 153 154 154 156 156 151 138 129 130 141 153 156 152 139 122 98 2 328 313 310 313 310 305 304 303 298 298 306 314 318 321 323 323 321 320 319 318 316 317 317 315 308 303 301 298 297 296 294 292 291 290 289 286 281 275 267 257 250 244 239 237 236 234 233 233 233 234 234 232 228 227 230 233 235 236 237 234 227 216 206 197
142 147 151 154 155 152 146 141 138 134 131 134 144 154 159 161 154 122 100 78 355 337 325 319 318 312 306 306 309 310 310 312 316 320 325 327 327 325 324 323 322 322 322 321 314 306 302 301 300 300 300 298 297 297 296 295 295 292 287 275 261 250 243 239 237 235 233 231 231 231 231 232 232 230 228 227 229 231 232 233 228 218 206 198 189
142 140 143 145 145 141 136 133 134 136 139 143 149 154 157 159 157 137 103 61 359 347 340 333 330 330 326 321 318 318 319 321 324 327 330 331 330 329 328 327 327 327 327 323 313 307 306 306 303 304 304 302 301 302 301 300 302 303 298 282 264 251 244 241 239 235 230 229 229 228 228 228 228 228 228 226 225 225 224 222 216 206 197 191 184
134 132 135 136 136 135 135 138 142 144 143 144 145 145 144 145 149 149 132 74 9 357 356 354 353 354 350 340 332 332 335 336 336 336 337 337 336 335 333 332 332 333 330 323 313 309 310 310 308 308 308 306 306 306 305 306 308 309 305 292 273 259 251 247 242 235 229 228 226 225 225 225 224 225 226 224 221 219 216 213 206 194 184 177 171
140 137 135 135 136 138 140 144 146 144 141 141 143 143 142 141 143 148 166 321 343 358 8 15 9 359 351 346 346 348 348 346 345 345 345 344 343 341 338 336 337 338 336 329 320 316 314 313 312 313 312 311 311 310 310 311 313 313 311 305 295 278 263 251 241 234 229 227 225 224 223 222 220 220 222 220 217 214 210 203 193 182 173 166 161
138 137 138 140 141 143 147 149 148 145 143 144 144 144 142 141 153 186 252 293 328 353 9 21 16 1 351 351 354 355 354 354 353 352 352 351 349 346 343 340 339 338 336 333 328 324 322 319 318 318 318 317 315 314 314 315 316 316 314 312 309 298 280 258 242 235 230 226 224 223 222 220 219 218 218 214 209 205 201 193 184 177 171 163 157
136 138 141 143 145 148 153 153 149 146 146 145 142 140 137 147 186 217 266 315 351 12 15 16 13 2 355 356 357 358 360 360 358 357 358 358 355 351 347 342 338 334 331 331 331 329 328 327 325 323 323 321 319 320 319 319 319 320 318 314 310 304 293 274 252 239 230 224 222 221 219 216 214 212 210 206 202 201 197 188 180 176 170 162 156
139 140 141 143 146 150 153 153 150 146 143 140 138 140 152 185 211 251 351 18 48 45 26 14 6 358 355 358 360 360 2 3 2 3 4 2 359 355 350 345 340 335 331 333 335 334 333 333 332 330 329 327 326 327 326 326 326 326 323 318 310 302 295 285 270 252 237 227 222 218 214 211 207 204 201 199 197 198 193 183 176 171 166 159 153
139 138 140 145 148 150 152 151 148 143 141 144 152 164 185 209 259 335 20 75 81 55 34 24 12 358 354 358 360 360 2 4 5 5 3 1 358 355 350 347 344 339 336 337 339 338 338 338 338 337 336 334 335 335 335 334 334 333 329 323 314 303 295 287 278 264 248 234 224 217 211 207 205 203 200 197 192 187 180 173 167 161 156 154 152
135 136 140 146 149 152 153 150 145 144 152 165 178 196 220 260 321 1 82 106 88 55 44 40 23 6 0 0 360 1 3 4 4 2 359 357 356 353 351 349 347 343 342 343 344 344 344 344 343 343 342 342 343 344 343 343 343 341 336 329 322 314 304 291 277 260 241 228 218 210 204 201 199 198 194 189 182 174 167 163 158 153 147 145 145
134 135 137 139 143 151 154 152 149 153 162 170 184 211 240 303 9 77 113 111 90 68 64 54 32 16 11 6 2 3 4 4 3 2 359 356 355 352 351 350 349 347 347 347 348 349 349 349 348 347 347 349 350 351 352 354 355 353 349 344 339 337 331 311 278 229 198 189 188 187 186 185 184 182 179 176 172 165 157 153 151 148 145 142 138
132 131 131 130 134 146 152 151 149 148 147 142 126 113 109 94 93 120 125 113 93 79 76 64 42 25 19 13 7 7 8 6 4 4 3 359 355 352 351 351 351 351 351 351 353 354 353 353 353 352 352 355 358 359 1 3 5 5 4 3 2 5 13 18 40 160 156 155 157 160 163 164 164 162 160 159 157 153 148 146 146 144 141 139 136
136 133 130 127 129 135 137 135 133 131 123 116 112 107 102 103 121 134 132 117 97 88 86 74 52 30 20 14 8 8 10 9 7 5 5 3 359 355 352 352 353 355 357 357 357 357 357 358 359 358 358 1 4 6 8 10 13 15 16 17 19 24 34 48 73 116 133 139 144 146 148 151 152 152 150 148 146 143 141 141 141 140 137 136 136
137 128 121 120 123 125 123 121 123 122 116 111 109 105 100 106 120 125 120 103 92 92 92 81 63 33 13 5 4 5 7 11 10 7 6 5 2 358 356 354 355 359 2 3 4 4 3 4 4 4 5 8 12 14 16 17 20 23 24 27 30 34 40 54 73 100 120 128 134 138 141 143 144 143 142 142 141 139 138 138 138 137 137 137 136
123 118 116 117 118 117 117 118 118 116 112 109 106 102 97 97 101 103 96 86 80 77 74 68 57 24 1 358 2 3 4 9 12 9 7 6 4 1 360 359 360 2 4 7 10 10 9 9 9 9 11 15 19 22 25 26 29 31 32 35 39 40 44 55 71 92 114 123 127 130 133 136 137 136 136 137 137 135 134 134 134 133 134 134 133
116 115 115 114 112 112 113 114 114 113 112 109 104 98 93 91 91 90 86 80 74 69 64 57 48 31 15 10 12 9 5 8 12 10 8 8 6 4 4 6 6 5 6 9 13 14 14 14 13 14 16 19 22 26 29 32 35 40 42 44 48 49 51 62 80 99 113 119 123 125 126 128 129 130 130 132 133 132 132 132 132 132 132 133 132
113 113 112 110 109 108 107 108 110 110 109 106 101 94 89 86 84 82 80 77 73 68 61 55 49 41 29 22 21 18 12 10 11 10 8 8 8 7 7 8 7 5 7 11 14 17 19 19 19 19 20 22 25 29 32 35 40 44 48 52 57 61 66 77 92 105 112 115 119 121 122 122 123 125 126 127 127 127 127 129 130 130 130 129 129
108 108 108 108 107 105 104 105 106 104 101 98 95 91 86 83 80 78 76 74 71 66 61 55 51 44 33 26 24 24 20 15 13 10 8 8 10 10 9 8 7 7 8 11 15 19 22 23 24 25 26 27 29 31 34 39 44 48 51 56 62 69 78 87 93 101 108 113 116 117 118 118 119 120 121 122 122 122 122 123 123 124 125 125 126
103 103 105 105 105 105 103 102 101 98 95 93 90 87 81 76 69 64 61 59 57 55 53 51 47 41 34 28 25 24 22 19 17 15 10 9 11 13 10 9 9 10 10 12 17 21 24 26 28 30 32 33 34 35 37 41 47 52 56 61 67 74 84 91 93 97 103 108 110 111 112 113 115 116 117 118 118 118 119 119 120 121 122 122 123
100 101 101 102 101 101 101 99 95 92 89 87 83 76 66 55 47 41 38 36 37 37 36 34 34 33 30 25 22 20 21 20 18 17 14 10 11 13 12 9 10 12 14 16 19 23 26 28 30 33 35 37 38 40 42 44 48 54 60 66 73 80 88 92 95 98 101 103 104 106 107 108 109 111 112 114 115 116 116 117 118 119 119 120 121
96 96 97 97 97 97 95 91 87 82 79 77 72 62 51 42 35 30 27 25 26 25 22 20 19 20 20 20 17 15 15 16 15 14 14 11 11 12 11 10 11 13 17 20 23 26 28 30 33 35 38 39 41 43 45 48 51 55 62 70 77 84 90 94 96 99 101 101 101 102 103 105 105 106 107 110 111 112 113 114 115 117 117 118 120
91 91 91 90 90 88 85 81 78 74 70 68 64 58 51 43 36 32 30 28 25 20 15 12 10 9 11 13 12 10 11 13 12 12 13 13 12 10 10 10 12 16 20 26 31 33 33 35 39 41 41 42 43 45 47 50 53 57 64 72 79 86 91 94 96 98 101 103 103 102 102 103 103 103 104 106 107 109 111 112 114 115 116 117 119
Height
775 777 778 780 782 784 786 789 791 794 796 797 798 799 801 803 804 807 808 810 811 813 814 816 816 818 818 819 820 820 821 821 820 820 820 820 819 818 817 816 815 814 813 812 812 811 810 809 809 809 809 808 807 807 807 807 807 806 806 806 806 807 807 806 803 798 794 792 792 791 791 791 790 790 790 790 790 791 791 790 790 789 790 789 789
773 775 777 778 779 781 783 786 788 791 794 796 797 798 800 801 803 805 807 808 810 812 813 815 816 817 818 819 819 820 820 821 820 820 820 820 819 818 817 816 815 814 813 812 811 810 809 807 807 807 807 806 806 805 805 805 805 804 804 804 803 803 805 804 802 799 794 790 790 789 789 789 788 787 788 787 787 788 788 788 787 787 787 788 788
773 776 778 780 780 780 781 783 786 789 792 794 796 798 799 801 803 804 806 808 809 811 812 814 815 816 817 818 819 819 820 820 820 820 820 819 819 818 818 817 816 814 813 812 811 809 808 807 806 805 805 804 804 804 803 803 803 802 801 801 801 800 801 802 801 799 794 790 788 788 787 786 786 785 785 785 785 785 785 785 785 784 784 785 785
772 773 775 777 780 782 781 782 784 786 790 792 795 798 799 801 803 804 806 808 809 810 811 813 814 815 816 817 818 819 819 819 819 819 819 819 818 818 817 816 815 814 813 812 810 809 808 807 806 805 804 803 802 802 802 801 801 800 799 799 799 798 798 799 798 797 795 790 787 787 786 785 784 783 783 783 782 782 782 782 782 782 782 782 783
770 771 770 772 775 779 782 784 784 786 788 791 794 797 799 801 803 804 806 808 809 810 811 812 812 813 815 816 816 817 818 818 819 818 818 818 817 817 816 816 815 813 812 811 810 809 808 806 805 805 804 803 802 801 801 800 800 799 798 797 797 796 795 795 795 795 794 791 787 785 785 784 782 781 781 781 780 779 780 779 779 779 780 779 779
769 770 770 769 770 773 777 782 785 786 787 789 792 795 798 800 802 804 806 807 808 809 810 811 811 812 813 814 815 816 817 817 817 817 817 817 816 816 815 814 813 812 811 810 809 808 807 806 805 804 803 802 801 800 799 799 798 797 797 796 795 795 794 793 793 792 791 790 787 784 783 783 781 779 779 779 778 777 778 778 777 777 777 777 777
765 767 767 767 766 768 770 773 779 783 785 786 789 792 795 798 800 802 804 805 807 808 809 810 810 811 811 812 814 815 815 816 816 816 816 815 815 814 813 812 811 810 809 808 807 807 806 805 804 803 802 801 800 799 798 797 797 796 795 794 793 793 792 791 791 790 789 787 785 783 781 781 780 778 777 777 776 776 776 776 775 774 774 774 774
763 764 766 766 765 765 766 767 770 775 780 783 785 788 791 794 797 800 801 803 805 806 808 809 809 809 810 811 812 813 813 814 814 814 814 813 813 812 811 810 809 808 807 806 805 804 803 802 802 801 800 799 798 798 797 796 795 794 793 793 792 791 790 789 789 788 787 786 783 781 779 778 778 777 776 775 774 774 774 774 773 772 772 772 772
762 762 762 763 764 765 767 767 766 768 772 777 780 783 787 791 794 796 799 801 802 804 806 807 807 808 808 809 810 811 812 812 812 812 812 811 811 810 809 808 807 805 804 803 802 801 800 800 799 798 798 797 796 795 794 794 793 791 790 791 790 789 788 787 786 786 785 784 782 780 778 776 775 775 775 773 773 772 772 773 772 771 771 770 770
759 759 758 758 759 760 764 765 765 765 768 772 776 778 782 787 790 793 796 798 800 802 804 805 805 806 806 807 808 809 810 810 810 810 810 809 809 808 807 806 805 803 802 800 799 798 797 796 795 795 794 793 793 792 791 791 790 789 788 788 787 787 785 784 783 783 782 781 780 778 776 773 772 773 773 772 772 771 771 771 771 770 770 769 769
757 756 755 756 756 758 760 761 763 764 766 769 772 774 777 781 786 789 792 795 798 800 801 803 803 803 804 805 807 808 808 808 808 807 807 807 806 805 804 803 802 801 799 798 796 794 793 792 791 790 790 789 788 788 787 787 786 785 785 784 784 784 783 781 780 780 779 778 776 776 774 771 769 770 770 770 770 769 769 769 769 769 769 769 768
755 754 754 755 756 758 760 762 764 765 765 766 767 770 773 777 781 786 789 792 795 797 799 800 801 802 802 803 805 805 806 806 805 805 804 804 803 802 801 800 799 798 797 795 793 792 790 788 787 786 785 785 784 784 783 782 781 781 780 780 779 779 780 779 777 776 776 775 773 772 771 769 767 767 768 768 767 767 767 767 767 767 767 767 767
753 753 753 753 754 755 758 761 763 765 766 766 765 768 771 774 778 783 787 791 792 794 796 797 799 800 800 801 803 803 804 804 803 803 801 800 800 799 798 797 796 795 794 792 791 789 787 785 783 782 781 781 780 780 779 777 777 776 775 775 774 774 774 774 774 773 772 771 769 767 766 767 765 764 765 766 766 765 764 764 764 765 764 764 764
750 750 751 751 752 753 754 756 758 760 762 765 767 768 770 773 778 783 787 790 791 793 794 795 797 798 798 800 800 801 802 802 801 800 799 797 796 795 795 794 793 792 790 789 787 785 784 782 779 778 777 777 776 775 774 773 772 771 770 769 769 768 769 769 769 769 768 767 765 762 762 764 762 761 763 764 764 763 762 761 762 762 762 761 761
748 748 748 750 751 753 754 756 757 758 759 762 766 768 769 773 778 783 786 788 790 792 793 794 795 795 796 798 798 799 800 799 799 797 795 794 793 792 792 790 789 788 787 785 784 781 780 778 776 774 773 772 772 772 771 770 768 767 765 764 763 763 763 763 764 765 764 763 761 759 758 759 759 758 760 761 761 760 760 759 759 759 759 758 758
746 746 746 747 749 751 753 755 759 761 760 763 768 770 771 774 778 782 785 787 789 791 791 792 793 793 795 796 796 797 797 797 796 794 792 791 790 789 788 787 786 784 782 781 779 777 776 775 773 771 769 768 768 768 767 766 764 762 760 759 758 758 757 758 760 760 759 758 756 755 755 755 755 755 756 757 757 757 758 756 756 757 756 755 755
744 744 744 744 746 748 750 752 757 760 760 763 768 771 774 776 778 781 784 786 788 789 789 790 790 792 793 794 795 795 795 795 793 791 790 789 787 786 785 783 782 780 778 777 775 773 772 771 769 768 766 765 764 764 764 763 760 758 756 754 754 752 751 753 754 754 753 753 751 751 751 750 751 751 752 753 753 755 756 754 753 754 753 752 751
742 742 742 742 743 746 748 750 753 756 759 764 768 771 775 777 779 781 783 785 786 787 787 788 789 790 791 792 792 793 792 792 790 789 787 786 785 783 782 779 778 776 773 772 771 769 768 767 766 764 762 761 760 760 760 759 756 754 753 751 749 746 747 749 749 748 748 748 746 746 746 745 746 746 746 747 749 751 752 750 750 751 750 748 747
740 740 740 740 742 743 745 747 749 751 756 762 767 771 774 778 779 781 783 784 784 785 786 786 787 788 789 789 790 790 789 789 788 786 785 784 782 781 779 777 774 772 770 768 766 765 763 762 761 760 758 757 756 755 755 754 752 750 749 747 744 741 743 746 744 743 743 743 741 741 740 740 740 741 741 742 743 745 746 745 747 747 745 744 745
738 738 739 740 741 742 744 747 748 749 755 763 767 771 774 776 779 780 781 782 783 784 785 785 786 786 786 787 787 787 787 786 785 784 783 781 780 778 777 775 772 769 767 764 762 760 758 757 756 755 754 753 751 751 750 749 748 745 744 743 739 738 740 742 740 740 739 737 737 737 735 735 735 735 736 737 738 739 739 740 741 742 741 740 740
736 738 739 739 740 741 743 746 747 749 756 763 767 770 772 775 777 779 780 781 782 783 783 784 784 784 784 784 785 785 784 783 782 781 780 779 778 776 774 772 770 766 763 761 759 756 754 752 751 750 749 748 747 746 744 744 743 741 738 737 735 735 737 737 736 736 735 732 732 732 730 730 730 730 731 732 733 734 735 735 736 736 737 736 735
734 736 738 738 739 740 742 744 747 750 757 762 765 768 771 774 776 777 778 780 781 781 782 782 782 782 782 782 782 782 781 781 779 779 778 776 775 774 771 769 767 764 760 757 755 752 750 748 746 745 744 742 741 740 739 738 737 735 732 731 731 732 733 731 731 731 729 728 728 726 725 725 725 725 725 726 727 729 730 731 731 732 732 732 732
732 733 735 737 738 740 741 743 748 753 758 762 765 768 770 772 774 776 777 778 779 780 781 781 781 780 780 780 780 779 779 778 777 776 775 774 772 770 768 766 764 762 758 754 751 748 745 743 741 740 739 737 735 734 733 732 730 728 726 726 726 726 727 726 725 725 724 723 722 720 719 719 720 720 720 721 722 724 726 727 728 728 728 727 727
730 731 733 735 737 739 741 745 750 754 758 762 765 767 769 771 772 774 775 777 778 779 779 779 779 778 778 777 777 777 776 776 775 774 773 771 769 766 764 762 760 758 755 751 747 744 741 738 736 735 733 731 729 727 726 725 723 720 719 719 720 720 720 719 719 719 718 717 716 714 713 714 714 714 715 716 719 720 722 723 724 724 724 723 723
728 730 733 735 736 739 742 746 750 754 758 763 765 767 768 770 771 773 774 776 777 777 777 777 777 776 776 775 775 774 774 773 773 772 770 768 765 763 760 758 756 754 751 747 744 741 737 734 732 729 727 725 722 720 718 716 714 713 712 712 713 713 713 712 712 712 711 709 709 708 707 708 709 710 711 713 715 716 717 718 719 719 720 719 719
726 729 732 735 739 743 745 747 750 754 758 761 764 766 768 769 771 772 773 774 775 775 776 776 775 775 774 773 773 772 772 771 770 769 767 765 762 759 756 754 751 749 746 743 739 736 733 730 727 724 721 719 716 714 711 709 707 705 704 704 705 705 705 705 705 704 703 702 702 702 702 703 705 706 707 708 709 710 712 713 714 715 715 715 715
724 726 729 735 742 746 747 747 750 754 757 760 763 766 767 769 770 771 772 773 774 774 774 774 774 773 773 772 772 771 770 769 768 766 764 761 758 755 752 749 747 744 741 738 735 731 728 725 722 719 716 713 710 708 705 702 701 699 697 697 696 696 696 696 696 696 696 696 696 696 697 699 700 701 702 703 704 705 707 709 709 710 711 712 712
723 727 731 735 740 744 746 748 750 754 757 760 763 765 767 768 770 770 771 772 772 773 773 773 773 772 772 771 771 770 768 767 765 763 761 758 755 751 749 746 743 740 737 734 731 727 724 721 717 714 711 708 705 702 700 697 694 692 690 689 689 688 688 689 689 689 689 690 691 692 693 694 695 695 697 698 699 700 702 704 704 705 706 708 708
723 729 733 736 739 742 745 748 750 754 757 761 763 765 767 768 769 770 770 771 771 772 772 772 772 772 771 770 769 768 766 764 763 761 759 756 753 749 746 743 740 737 734 731 727 723 720 717 714 711 708 704 701 698 695 692 689 687 684 683 682 682 682 682 683 683 683 684 686 687 688 689 689 690 692 693 694 696 697 699 700 701 702 703 703
726 731 735 739 741 742 745 748 751 755 758 761 763 765 767 768 768 769 769 770 770 771 771 771 771 771 770 769 768 766 764 762 760 759 756 753 750 747 743 740 737 734 731 728 724 721 717 714 711 708 705 701 698 695 692 689 685 682 679 677 676 676 676 676 676 676 677 679 680 682 683 685 685 686 688 689 690 692 693 694 695 696 697 698 699
729 733 737 739 741 743 745 748 752 756 758 761 763 765 766 766 767 768 768 769 769 770 770 770 770 770 769 767 766 765 763 761 759 757 753 750 747 744 741 738 734 731 728 725 722 718 715 711 708 705 702 698 695 692 689 685 682 678 675 673 671 671 671 670 671 672 673 675 676 677 679 680 682 683 684 685 686 688 689 690 691 692 692 694 695
730 733 735 738 741 744 746 750 753 756 759 761 763 763 764 765 766 767 768 768 769 769 769 769 769 769 768 766 765 763 762 760 758 755 751 747 744 741 738 735 732 729 726 723 719 716 712 709 705 702 699 695 692 689 686 682 678 675 672 669 667 666 666 665 666 667 669 670 671 673 674 676 678 679 680 681 682 684 685 686 687 687 688 690 692
730 732 735 739 742 745 748 751 754 756 759 761 762 762 763 764 765 766 767 767 768 768 768 768 768 767 766 765 764 763 761 759 756 752 749 745 742 739 736 733 730 727 724 721 718 714 710 707 703 699 696 692 689 685 682 679 675 672 669 666 664 662 661 661 662 663 664 665 667 668 670 671 673 675 676 677 678 680 681 683 683 684 686 688 690
732 735 738 741 744 747 749 752 754 756 758 759 760 761 762 764 764 765 766 767 767 767 767 767 767 766 765 764 763 762 760 757 754 751 747 744 741 738 734 731 728 725 722 719 716 712 708 705 701 697 693 690 686 683 679 675 672 669 666 664 661 659 658 658 658 659 660 661 663 664 665 667 669 671 673 674 675 677 678 679 680 682 683 686 689
735 738 741 743 745 748 750 752 754 756 757 759 760 761 762 763 763 764 765 766 766 766 766 766 766 765 764 763 762 761 759 756 753 749 746 743 740 737 733 730 726 723 720 717 714 710 706 702 698 694 691 687 684 680 676 672 669 666 664 661 658 657 656 655 655 655 656 657 659 660 661 663 665 667 669 670 672 673 675 676 678 679 681 684 687
737 740 742 744 746 748 750 752 754 755 757 758 759 760 761 762 763 764 765 765 765 765 765 765 765 765 764 763 762 761 758 755 751 748 745 742 739 736 733 730 726 723 719 716 713 709 705 701 697 693 689 685 682 678 674 671 667 664 662 659 657 654 653 652 652 652 652 653 654 656 658 659 661 663 665 667 669 671 673 674 676 678 680 682 685
739 741 743 745 747 749 751 752 754 755 756 757 758 759 760 761 762 763 764 764 764 764 764 764 764 764 764 763 762 760 757 754 750 747 743 740 738 736 733 730 727 723 719 715 711 707 703 699 695 691 688 684 680 676 673 669 666 663 660 658 655 653 651 650 649 649 649 649 650 652 654 656 658 660 662 664 667 669 671 673 675 677 680 682 685
740 742 744 746 748 749 751 752 754 755 756 757 758 759 760 761 762 762 762 763 763 764 764 764 764 764 763 762 761 759 756 753 749 745 742 740 737 735 733 730 727 723 719 715 711 707 703 698 695 691 687 683 679 675 672 668 665 662 659 657 654 652 650 648 647 647 646 646 647 649 651 653 655 657 659 662 665 667 669 672 674 677 680 683 686
741 743 745 747 748 749 751 752 753 755 756 757 759 759 760 760 761 761 761 762 763 763 764 764 764 764 763 762 760 758 756 752 748 745 742 740 737 735 732 729 726 722 719 715 711 707 703 698 695 691 687 683 679 675 671 668 665 662 659 656 654 652 650 648 647 645 644 644 645 646 648 650 653 655 658 660 663 666 668 671 674 677 680 685 688
743 745 747 748 749 750 751 752 754 755 757 758 759 759 759 759 760 760 761 762 763 764 764 764 764 764 763 762 760 758 755 752 749 746 743 740 737 735 732 729 726 722 718 715 711 707 703 699 695 692 688 684 680 675 672 668 665 662 659 657 654 652 650 649 648 646 645 644 645 646 647 649 652 655 657 660 662 665 668 671 674 677 680 684 688
744 746 748 749 750 751 752 753 755 756 757 758 758 758 759 759 760 761 762 763 763 763 764 764 764 764 763 761 760 758 756 753 750 747 744 741 738 735 732 729 726 723 719 715 711 708 704 700 696 693 689 685 681 677 673 669 666 663 660 658 656 654 652 650 649 648 647 646 646 647 648 650 652 654 657 660 663 666 669 671 675 678 681 684 688
746 747 748 749 750 752 753 754 755 756 757 757 757 758 760 760 761 762 762 763 763 763 763 763 763 763 762 761 760 758 756 753 751 748 745 742 739 736 733 730 727 724 720 717 713 709 706 702 698 694 690 686 682 678 674 671 668 665 662 660 657 656 654 652 651 650 649 649 649 649 651 652 653 655 658 661 664 667 669 672 675 679 682 685 689
747 748 749 750 751 752 753 754 755 756 756 757 758 760 761 761 762 762 762 763 763 763 763 763 762 762 762 761 759 757 755 753 751 748 745 743 740 737 735 732 728 725 722 719 715 711 708 704 700 696 692 688 684 680 677 673 670 667 665 662 660 658 656 655 654 653 652 652 652 652 653 654 655 657 659 662 665 667 671 674 677 680 683 687 691
748 749 750 751 752 753 754 755 756 757 757 758 760 761 762 762 762 763 763 763 763 763 763 762 762 761 761 760 758 757 755 753 751 749 746 744 741 739 736 733 730 727 723 720 716 713 709 706 702 698 694 690 687 683 680 676 673 670 668 665 663 661 659 658 657 657 656 655 655 656 656 657 658 659 661 663 666 669 672 676 679 683 686 690 693
750 751 752 753 754 754 755 756 758 758 759 760 761 762 763 763 763 763 764 764 763 763 763 762 761 761 760 760 758 756 755 753 751 749 747 744 742 740 737 734 731 728 725 721 718 715 711 708 704 700 696 693 689 686 682 679 676 674 671 669 666 664 663 662 661 660 659 659 658 659 660 661 662 663 664 666 668 671 674 678 681 684 688 692 695
751 752 753 754 755 756 758 759 760 760 761 762 763 763 764 765 765 765 765 764 763 763 763 762 761 761 760 759 758 756 755 753 751 749 747 745 743 741 739 736 733 730 727 724 720 717 713 710 706 703 699 696 692 689 686 683 680 677 675 672 670 668 667 666 665 664 663 662 662 663 663 664 666 667 669 670 672 674 677 681 684 687 690 694 697
753 754 755 756 757 758 760 761 762 763 763 764 764 765 765 766 766 766 765 764 764 763 762 762 761 761 760 759 758 756 755 753 751 750 748 746 744 742 740 738 735 732 729 726 723 719 716 713 709 706 703 699 696 693 690 686 684 681 679 676 674 673 671 670 669 668 667 667 667 667 668 668 670 671 673 675 676 678 681 684 687 690 693 697 700
755 756 758 759 759 761 763 764 764 765 765 765 766 766 767 767 767 767 766 765 764 764 763 762 761 760 760 759 758 757 755 754 752 750 749 747 745 743 742 739 737 734 731 728 725 722 719 716 713 710 707 703 700 697 694 691 688 685 683 681 679 677 676 674 673 673 672 672 672 672 673 673 674 676 678 679 681 683 685 687 691 694 697 700 704
758 759 760 761 762 763 765 765 766 766 767 767 767 768 768 768 768 768 767 767 765 764 763 762 761 761 760 759 758 757 756 754 752 751 749 747 746 744 743 741 739 736 733 731 728 725 722 719 716 713 710 707 704 701 698 695 693 690 688 686 684 682 681 679 678 678 677 677 677 678 678 679 680 681 683 684 686 687 689 692 695 698 701 704 708
761 762 763 764 765 766 767 767 768 768 768 768 769 769 770 770 770 770 769 768 766 765 764 763 762 761 760 759 759 758 756 755 753 752 750 748 747 746 744 743 741 739 736 733 731 728 725 723 720 717 714 712 709 706 703 700 698 695 693 691 690 688 686 685 684 683 683 683 683 683 684 685 686 687 689 690 691 692 695 697 700 702 705 708 712
765 766 767 768 768 769 769 770 770 770 770 770 770 771 772 772 772 771 770 769 767 766 765 764 763 762 761 760 759 758 757 756 755 753 751 750 748 746 745 744 743 741 739 736 734 731 729 726 724 721 719 716 713 711 708 706 703 701 699 697 695 693 692 691 690 690 689 688 689 689 690 690 691 693 694 696 697 698 700 703 705 708 710 713 717